Year,Month,Day,Hour,Minute,Value (Times are PST for windgust in km/hr)
2014,07,08,00,00,35.40
2014,07,08,00,01,32.20
2014,07,08,00,02,24.20
2014,07,08,00,03,37.00
2014,07,08,00,04,40.20
2014,07,08,00,05,49.90
2014,07,08,00,06,40.20
2014,07,08,00,07,33.80
2014,07,08,00,08,32.20
2014,07,08,00,09,51.50
2014,07,08,00,10,38.60
2014,07,08,00,11,40.20
2014,07,08,00,12,41.80
2014,07,08,00,13,33.80
2014,07,08,00,14,35.40
2014,07,08,00,15,54.70
2014,07,08,00,16,40.20
2014,07,08,00,17,45.10
2014,07,08,00,18,37.00
2014,07,08,00,19,40.20
2014,07,08,00,20,46.70
2014,07,08,00,21,30.60
2014,07,08,00,22,30.60
2014,07,08,00,23,38.60
2014,07,08,00,24,35.40
2014,07,08,00,25,38.60
2014,07,08,00,26,53.10
2014,07,08,00,27,30.60
2014,07,08,00,28,40.20
2014,07,08,00,29,32.20
2014,07,08,00,30,41.80
2014,07,08,00,31,24.20
2014,07,08,00,32,19.30
2014,07,08,00,33,41.80
2014,07,08,00,34,24.20
2014,07,08,00,35,43.50
2014,07,08,00,36,48.30
2014,07,08,00,37,22.50
2014,07,08,00,38,22.50
2014,07,08,00,39,33.80
2014,07,08,00,40,41.80
2014,07,08,00,41,25.70
2014,07,08,00,42,33.80
2014,07,08,00,43,32.20
2014,07,08,00,44,48.30
2014,07,08,00,45,22.50
2014,07,08,00,46,25.70
2014,07,08,00,47,38.60
2014,07,08,00,48,30.60
2014,07,08,00,49,24.20
2014,07,08,00,50,20.90
2014,07,08,00,51,16.10
2014,07,08,00,52,1.60
2014,07,08,00,59,3.20
2014,07,08,01,00,3.20
2014,07,08,01,01,4.80
2014,07,08,01,02,1.60
2014,07,08,01,04,1.60
2014,07,08,01,05,1.60
2014,07,08,01,06,16.10
2014,07,08,01,07,4.80
2014,07,08,01,08,4.80
2014,07,08,01,09,6.40
2014,07,08,01,10,6.40
2014,07,08,01,11,1.60
2014,07,08,01,12,17.70
2014,07,08,01,13,22.50
2014,07,08,01,14,14.50
2014,07,08,01,16,8.10
2014,07,08,01,17,22.50
2014,07,08,01,18,27.40
2014,07,08,01,19,9.60
2014,07,08,01,20,17.70
2014,07,08,01,21,20.90
2014,07,08,01,22,19.30
2014,07,08,01,23,16.10
2014,07,08,01,24,22.50
2014,07,08,01,25,20.90
2014,07,08,01,26,17.70
2014,07,08,01,27,19.30
2014,07,08,01,28,25.70
2014,07,08,01,29,16.10
2014,07,08,01,30,24.20
2014,07,08,01,31,16.10
2014,07,08,01,32,12.90
2014,07,08,01,33,19.30
2014,07,08,01,34,16.10
2014,07,08,01,35,17.70
2014,07,08,01,36,25.70
2014,07,08,01,37,35.40
2014,07,08,01,38,35.40
2014,07,08,01,39,37.00
2014,07,08,01,40,51.50
2014,07,08,01,41,30.60
2014,07,08,01,42,33.80
2014,07,08,01,43,37.00
2014,07,08,01,44,20.90
2014,07,08,01,45,41.80
2014,07,08,01,46,20.90
2014,07,08,01,47,49.90
2014,07,08,01,48,27.40
2014,07,08,01,49,30.60
2014,07,08,01,50,46.70
2014,07,08,01,51,41.80
2014,07,08,01,52,41.80
2014,07,08,01,53,40.20
2014,07,08,01,54,46.70
2014,07,08,01,55,32.20
2014,07,08,01,56,33.80
2014,07,08,01,57,27.40
2014,07,08,01,58,43.50
2014,07,08,01,59,40.20
2014,07,08,02,00,17.70
2014,07,08,02,01,35.40
2014,07,08,02,02,30.60
2014,07,08,02,03,30.60
2014,07,08,02,04,24.20
2014,07,08,02,05,33.80
2014,07,08,02,06,30.60
2014,07,08,02,07,33.80
2014,07,08,02,08,45.10
2014,07,08,02,09,30.60
2014,07,08,02,10,25.70
2014,07,08,02,11,24.20
2014,07,08,02,12,37.00
2014,07,08,02,13,25.70
2014,07,08,02,14,33.80
2014,07,08,02,15,37.00
2014,07,08,02,16,24.20
2014,07,08,02,17,38.60
2014,07,08,02,18,6.40
2014,07,08,02,20,4.80
2014,07,08,02,21,6.40
2014,07,08,02,22,19.30
2014,07,08,02,23,11.30
2014,07,08,02,24,19.30
2014,07,08,02,25,22.50
2014,07,08,02,26,14.50
2014,07,08,02,27,17.70
2014,07,08,02,28,14.50
2014,07,08,02,29,33.80
2014,07,08,02,30,16.10
2014,07,08,02,31,19.30
2014,07,08,02,32,11.30
2014,07,08,02,33,12.90
2014,07,08,02,34,11.30
2014,07,08,02,35,19.30
2014,07,08,02,36,8.10
2014,07,08,02,37,9.60
2014,07,08,02,38,16.10
2014,07,08,02,39,20.90
2014,07,08,02,40,17.70
2014,07,08,02,41,11.30
2014,07,08,02,42,20.90
2014,07,08,02,43,25.70
2014,07,08,02,44,30.60
2014,07,08,02,45,25.70
2014,07,08,02,46,38.60
2014,07,08,02,47,11.30
2014,07,08,02,48,20.90
2014,07,08,02,49,29.00
2014,07,08,02,50,25.70
2014,07,08,02,51,37.00
2014,07,08,02,52,22.50
2014,07,08,02,53,45.10
2014,07,08,02,54,27.40
2014,07,08,02,55,29.00
2014,07,08,02,56,43.50
2014,07,08,02,57,20.90
2014,07,08,02,58,11.30
2014,07,08,02,59,14.50
2014,07,08,03,00,11.30
2014,07,08,03,01,17.70
2014,07,08,03,02,22.50
2014,07,08,03,03,17.70
2014,07,08,03,04,19.30
2014,07,08,03,05,19.30
2014,07,08,03,06,19.30
2014,07,08,03,07,27.40
2014,07,08,03,08,24.20
2014,07,08,03,09,25.70
2014,07,08,03,10,16.10
2014,07,08,03,11,19.30
2014,07,08,03,12,9.60
2014,07,08,03,13,17.70
2014,07,08,03,14,17.70
2014,07,08,03,15,14.50
2014,07,08,03,16,8.10
2014,07,08,03,17,25.70
2014,07,08,03,18,22.50
2014,07,08,03,19,22.50
2014,07,08,03,20,20.90
2014,07,08,03,21,20.90
2014,07,08,03,22,27.40
2014,07,08,03,23,29.00
2014,07,08,03,24,20.90
2014,07,08,03,25,27.40
2014,07,08,03,26,24.20
2014,07,08,03,27,40.20
2014,07,08,03,28,37.00
2014,07,08,03,29,17.70
2014,07,08,03,30,41.80
2014,07,08,03,31,33.80
2014,07,08,03,32,32.20
2014,07,08,03,33,32.20
2014,07,08,03,34,27.40
2014,07,08,03,35,30.60
2014,07,08,03,36,37.00
2014,07,08,03,37,49.90
2014,07,08,03,38,38.60
2014,07,08,03,39,43.50
2014,07,08,03,40,40.20
2014,07,08,03,41,43.50
2014,07,08,03,42,54.70
2014,07,08,03,43,49.90
2014,07,08,03,44,48.30
2014,07,08,03,45,54.70
2014,07,08,03,46,37.00
2014,07,08,03,47,40.20
2014,07,08,03,48,40.20
2014,07,08,03,49,37.00
2014,07,08,03,50,40.20
2014,07,08,03,51,46.70
2014,07,08,03,52,46.70
2014,07,08,03,53,29.00
2014,07,08,03,54,41.80
2014,07,08,03,55,41.80
2014,07,08,03,56,24.20
2014,07,08,03,57,27.40
2014,07,08,03,58,22.50
2014,07,08,03,59,22.50
2014,07,08,04,00,16.10
2014,07,08,04,01,16.10
2014,07,08,04,02,19.30
2014,07,08,04,03,12.90
2014,07,08,04,04,17.70
2014,07,08,04,05,16.10
2014,07,08,04,06,20.90
2014,07,08,04,07,17.70
2014,07,08,04,08,20.90
2014,07,08,04,09,17.70
2014,07,08,04,10,16.10
2014,07,08,04,11,16.10
2014,07,08,04,12,16.10
2014,07,08,04,13,20.90
2014,07,08,04,14,22.50
2014,07,08,04,15,19.30
2014,07,08,04,16,20.90
2014,07,08,04,17,14.50
2014,07,08,04,18,12.90
2014,07,08,04,19,19.30
2014,07,08,04,20,20.90
2014,07,08,04,21,20.90
2014,07,08,04,22,14.50
2014,07,08,04,23,16.10
2014,07,08,04,24,11.30
2014,07,08,04,25,17.70
2014,07,08,04,26,16.10
2014,07,08,04,27,20.90
2014,07,08,04,28,17.70
2014,07,08,04,29,20.90
2014,07,08,04,30,17.70
2014,07,08,04,31,17.70
2014,07,08,04,32,16.10
2014,07,08,04,33,19.30
2014,07,08,04,34,20.90
2014,07,08,04,35,22.50
2014,07,08,04,36,27.40
2014,07,08,04,37,17.70
2014,07,08,04,38,9.60
2014,07,08,04,39,22.50
2014,07,08,04,40,16.10
2014,07,08,04,41,20.90
2014,07,08,04,42,14.50
2014,07,08,04,43,11.30
2014,07,08,04,44,16.10
2014,07,08,04,45,20.90
2014,07,08,04,46,32.20
2014,07,08,04,47,38.60
2014,07,08,04,48,24.20
2014,07,08,04,49,14.50
2014,07,08,04,50,22.50
2014,07,08,04,51,20.90
2014,07,08,04,52,20.90
2014,07,08,04,53,16.10
2014,07,08,04,54,14.50
2014,07,08,04,55,14.50
2014,07,08,04,56,11.30
2014,07,08,04,57,17.70
2014,07,08,04,58,11.30
2014,07,08,04,59,14.50
2014,07,08,05,00,16.10
2014,07,08,05,01,14.50
2014,07,08,05,02,16.10
2014,07,08,05,03,19.30
2014,07,08,05,04,20.90
2014,07,08,05,05,19.30
2014,07,08,05,06,9.60
2014,07,08,05,07,6.40
2014,07,08,05,08,14.50
2014,07,08,05,09,20.90
2014,07,08,05,10,16.10
2014,07,08,05,11,14.50
2014,07,08,05,12,20.90
2014,07,08,05,13,11.30
2014,07,08,05,14,19.30
2014,07,08,05,15,17.70
2014,07,08,05,16,17.70
2014,07,08,05,17,20.90
2014,07,08,05,18,19.30
2014,07,08,05,19,19.30
2014,07,08,05,20,14.50
2014,07,08,05,21,14.50
2014,07,08,05,22,14.50
2014,07,08,05,23,20.90
2014,07,08,05,24,25.70
2014,07,08,05,25,22.50
2014,07,08,05,26,20.90
2014,07,08,05,27,19.30
2014,07,08,05,28,19.30
2014,07,08,05,29,24.20
2014,07,08,05,30,22.50
2014,07,08,05,31,17.70
2014,07,08,05,32,20.90
2014,07,08,05,33,11.30
2014,07,08,05,34,24.20
2014,07,08,05,35,40.20
2014,07,08,05,36,33.80
2014,07,08,05,37,19.30
2014,07,08,05,38,24.20
2014,07,08,05,39,16.10
2014,07,08,05,40,25.70
2014,07,08,05,41,37.00
2014,07,08,05,42,43.50
2014,07,08,05,43,29.00
2014,07,08,05,44,37.00
2014,07,08,05,45,49.90
2014,07,08,05,46,30.60
2014,07,08,05,47,19.30
2014,07,08,05,48,19.30
2014,07,08,05,49,17.70
2014,07,08,05,50,17.70
2014,07,08,05,51,27.40
2014,07,08,05,52,25.70
2014,07,08,05,53,33.80
2014,07,08,05,54,11.30
2014,07,08,05,55,14.50
2014,07,08,05,56,24.20
2014,07,08,05,57,24.20
2014,07,08,05,58,29.00
2014,07,08,05,59,40.20
2014,07,08,06,00,45.10
2014,07,08,06,01,41.80
2014,07,08,06,02,27.40
2014,07,08,06,03,41.80
2014,07,08,06,04,27.40
2014,07,08,06,05,20.90
2014,07,08,06,06,9.60
2014,07,08,06,07,22.50
2014,07,08,06,08,20.90
2014,07,08,06,09,33.80
2014,07,08,06,10,24.20
2014,07,08,06,11,40.20
2014,07,08,06,12,29.00
2014,07,08,06,13,30.60
2014,07,08,06,14,38.60
2014,07,08,06,15,29.00
2014,07,08,06,16,24.20
2014,07,08,06,17,43.50
2014,07,08,06,18,41.80
2014,07,08,06,19,49.90
2014,07,08,06,20,46.70
2014,07,08,06,21,30.60
2014,07,08,06,22,29.00
2014,07,08,06,23,40.20
2014,07,08,06,24,30.60
2014,07,08,06,25,32.20
2014,07,08,06,26,43.50
2014,07,08,06,27,35.40
2014,07,08,06,28,19.30
2014,07,08,06,29,40.20
2014,07,08,06,30,29.00
2014,07,08,06,31,30.60
2014,07,08,06,32,37.00
2014,07,08,06,33,35.40
2014,07,08,06,34,33.80
2014,07,08,06,35,30.60
2014,07,08,06,36,53.10
2014,07,08,06,37,48.30
2014,07,08,06,38,41.80
2014,07,08,06,39,40.20
2014,07,08,06,40,22.50
2014,07,08,06,41,53.10
2014,07,08,06,42,33.80
2014,07,08,06,43,43.50
2014,07,08,06,44,41.80
2014,07,08,06,45,11.30
2014,07,08,06,46,41.80
2014,07,08,06,47,35.40
2014,07,08,06,48,40.20
2014,07,08,06,49,24.20
2014,07,08,06,50,49.90
2014,07,08,06,51,29.00
2014,07,08,06,52,16.10
2014,07,08,06,53,33.80
2014,07,08,06,54,46.70
2014,07,08,06,55,41.80
2014,07,08,06,56,43.50
2014,07,08,06,57,41.80
2014,07,08,06,58,38.60
2014,07,08,06,59,33.80
2014,07,08,07,00,33.80
2014,07,08,07,01,14.50
2014,07,08,07,02,25.70
2014,07,08,07,03,27.40
2014,07,08,07,04,25.70
2014,07,08,07,05,29.00
2014,07,08,07,06,19.30
2014,07,08,07,07,19.30
2014,07,08,07,08,25.70
2014,07,08,07,09,24.20
2014,07,08,07,10,24.20
2014,07,08,07,11,8.10
2014,07,08,07,12,14.50
2014,07,08,07,13,45.10
2014,07,08,07,14,11.30
2014,07,08,07,15,40.20
2014,07,08,07,16,8.10
2014,07,08,07,17,19.30
2014,07,08,07,18,38.60
2014,07,08,07,19,30.60
2014,07,08,07,20,25.70
2014,07,08,07,21,17.70
2014,07,08,07,22,29.00
2014,07,08,07,23,40.20
2014,07,08,07,24,24.20
2014,07,08,07,25,25.70
2014,07,08,07,26,19.30
2014,07,08,07,27,27.40
2014,07,08,07,28,16.10
2014,07,08,07,29,20.90
2014,07,08,07,30,8.10
2014,07,08,07,31,11.30
2014,07,08,07,32,4.80
2014,07,08,07,33,16.10
2014,07,08,07,34,24.20
2014,07,08,07,35,24.20
2014,07,08,07,36,14.50
2014,07,08,07,37,9.60
2014,07,08,07,38,22.50
2014,07,08,07,39,4.80
2014,07,08,07,40,11.30
2014,07,08,07,41,19.30
2014,07,08,07,42,11.30
2014,07,08,07,43,6.40
2014,07,08,07,44,16.10
2014,07,08,07,45,19.30
2014,07,08,07,46,22.50
2014,07,08,07,47,17.70
2014,07,08,07,48,29.00
2014,07,08,07,49,30.60
2014,07,08,07,50,32.20
2014,07,08,07,51,14.50
2014,07,08,07,52,20.90
2014,07,08,07,53,22.50
2014,07,08,07,54,20.90
2014,07,08,07,55,30.60
2014,07,08,07,56,29.00
2014,07,08,07,57,17.70
2014,07,08,07,58,14.50
2014,07,08,07,59,14.50
2014,07,08,08,00,8.10
2014,07,08,08,01,11.30
2014,07,08,08,02,11.30
2014,07,08,08,03,9.60
2014,07,08,08,04,20.90
2014,07,08,08,05,24.20
2014,07,08,08,06,24.20
2014,07,08,08,07,49.90
2014,07,08,08,08,19.30
2014,07,08,08,09,33.80
2014,07,08,08,10,20.90
2014,07,08,08,11,14.50
2014,07,08,08,12,19.30
2014,07,08,08,13,9.60
2014,07,08,08,14,14.50
2014,07,08,08,15,8.10
2014,07,08,08,16,20.90
2014,07,08,08,17,14.50
2014,07,08,08,18,19.30
2014,07,08,08,19,17.70
2014,07,08,08,20,6.40
2014,07,08,08,21,14.50
2014,07,08,08,22,12.90
2014,07,08,08,23,11.30
2014,07,08,08,24,6.40
2014,07,08,08,25,8.10
2014,07,08,08,26,9.60
2014,07,08,08,27,19.30
2014,07,08,08,28,14.50
2014,07,08,08,29,24.20
2014,07,08,08,30,37.00
2014,07,08,08,31,19.30
2014,07,08,08,32,17.70
2014,07,08,08,33,9.60
2014,07,08,08,34,16.10
2014,07,08,08,35,25.70
2014,07,08,08,36,41.80
2014,07,08,08,37,27.40
2014,07,08,08,38,8.10
2014,07,08,08,39,8.10
2014,07,08,08,40,37.00
2014,07,08,08,41,27.40
2014,07,08,08,42,9.60
2014,07,08,08,43,6.40
2014,07,08,08,44,9.60
2014,07,08,08,45,4.80
2014,07,08,08,46,6.40
2014,07,08,08,47,8.10
2014,07,08,08,48,4.80
2014,07,08,08,49,14.50
2014,07,08,08,50,14.50
2014,07,08,08,51,16.10
2014,07,08,08,52,24.20
2014,07,08,08,53,20.90
2014,07,08,08,54,40.20
2014,07,08,08,55,49.90
2014,07,08,08,56,40.20
2014,07,08,08,57,45.10
2014,07,08,08,58,24.20
2014,07,08,08,59,9.60
2014,07,08,09,00,40.20
2014,07,08,09,01,53.10
2014,07,08,09,02,49.90
2014,07,08,09,03,37.00
2014,07,08,09,04,32.20
2014,07,08,09,05,35.40
2014,07,08,09,06,14.50
2014,07,08,09,07,8.10
2014,07,08,09,08,8.10
2014,07,08,09,09,41.80
2014,07,08,09,10,25.70
2014,07,08,09,11,30.60
2014,07,08,09,12,17.70
2014,07,08,09,13,16.10
2014,07,08,09,14,20.90
2014,07,08,09,15,6.40
2014,07,08,09,16,19.30
2014,07,08,09,17,16.10
2014,07,08,09,18,14.50
2014,07,08,09,19,16.10
2014,07,08,09,20,14.50
2014,07,08,09,21,19.30
2014,07,08,09,22,17.70
2014,07,08,09,23,14.50
2014,07,08,09,24,16.10
2014,07,08,09,25,16.10
2014,07,08,09,26,16.10
2014,07,08,09,27,19.30
2014,07,08,09,28,37.00
2014,07,08,09,29,37.00
2014,07,08,09,30,24.20
2014,07,08,09,31,20.90
2014,07,08,09,32,11.30
2014,07,08,09,33,24.20
2014,07,08,09,34,14.50
2014,07,08,09,35,9.60
2014,07,08,09,36,16.10
2014,07,08,09,37,17.70
2014,07,08,09,38,9.60
2014,07,08,09,39,22.50
2014,07,08,09,40,22.50
2014,07,08,09,41,17.70
2014,07,08,09,42,3.20
2014,07,08,09,43,11.30
2014,07,08,09,44,20.90
2014,07,08,09,45,20.90
2014,07,08,09,46,19.30
2014,07,08,09,47,14.50
2014,07,08,09,48,16.10
2014,07,08,09,49,24.20
2014,07,08,09,50,16.10
2014,07,08,09,51,24.20
2014,07,08,09,52,17.70
2014,07,08,09,53,16.10
2014,07,08,09,54,11.30
2014,07,08,09,55,40.20
2014,07,08,09,56,19.30
2014,07,08,09,57,30.60
2014,07,08,09,58,37.00
2014,07,08,09,59,40.20
2014,07,08,10,00,53.10
2014,07,08,10,01,37.00
2014,07,08,10,02,17.70
2014,07,08,10,03,17.70
2014,07,08,10,04,19.30
2014,07,08,10,05,24.20
2014,07,08,10,06,16.10
2014,07,08,10,07,17.70
2014,07,08,10,08,20.90
2014,07,08,10,09,16.10
2014,07,08,10,10,22.50
2014,07,08,10,11,19.30
2014,07,08,10,12,25.70
2014,07,08,10,13,24.20
2014,07,08,10,14,22.50
2014,07,08,10,15,22.50
2014,07,08,10,16,14.50
2014,07,08,10,17,29.00
2014,07,08,10,18,20.90
2014,07,08,10,19,14.50
2014,07,08,10,20,14.50
2014,07,08,10,21,25.70
2014,07,08,10,22,16.10
2014,07,08,10,23,16.10
2014,07,08,10,24,16.10
2014,07,08,10,25,14.50
2014,07,08,10,26,4.80
2014,07,08,10,27,8.10
2014,07,08,10,28,16.10
2014,07,08,10,29,14.50
2014,07,08,10,30,19.30
2014,07,08,10,31,30.60
2014,07,08,10,32,27.40
2014,07,08,10,33,27.40
2014,07,08,10,34,14.50
2014,07,08,10,35,22.50
2014,07,08,10,36,37.00
2014,07,08,10,37,12.90
2014,07,08,10,38,22.50
2014,07,08,10,39,22.50
2014,07,08,10,40,38.60
2014,07,08,10,41,30.60
2014,07,08,10,42,16.10
2014,07,08,10,43,16.10
2014,07,08,10,44,16.10
2014,07,08,10,45,9.60
2014,07,08,10,46,16.10
2014,07,08,10,47,24.20
2014,07,08,10,48,24.20
2014,07,08,10,49,4.80
2014,07,08,10,50,9.60
2014,07,08,10,51,17.70
2014,07,08,10,52,9.60
2014,07,08,10,53,14.50
2014,07,08,10,54,30.60
2014,07,08,10,55,17.70
2014,07,08,10,56,25.70
2014,07,08,10,57,24.20
2014,07,08,10,58,20.90
2014,07,08,10,59,8.10
2014,07,08,11,00,9.60
2014,07,08,11,01,20.90
2014,07,08,11,02,40.20
2014,07,08,11,03,30.60
2014,07,08,11,04,16.10
2014,07,08,11,05,17.70
2014,07,08,11,06,17.70
2014,07,08,11,07,27.40
2014,07,08,11,08,22.50
2014,07,08,11,09,30.60
2014,07,08,11,10,40.20
2014,07,08,11,11,16.10
2014,07,08,11,12,27.40
2014,07,08,11,13,33.80
2014,07,08,11,14,24.20
2014,07,08,11,15,24.20
2014,07,08,11,16,25.70
2014,07,08,11,17,20.90
2014,07,08,11,18,17.70
2014,07,08,11,19,17.70
2014,07,08,11,20,24.20
2014,07,08,11,21,24.20
2014,07,08,11,22,24.20
2014,07,08,11,23,20.90
2014,07,08,11,24,25.70
2014,07,08,11,25,27.40
2014,07,08,11,26,17.70
2014,07,08,11,27,27.40
2014,07,08,11,28,27.40
2014,07,08,11,29,17.70
2014,07,08,11,30,8.10
2014,07,08,11,31,20.90
2014,07,08,11,32,16.10
2014,07,08,11,33,6.40
2014,07,08,11,34,8.10
2014,07,08,11,35,9.60
2014,07,08,11,36,16.10
2014,07,08,11,37,9.60
2014,07,08,11,38,12.90
2014,07,08,11,39,16.10
2014,07,08,11,40,16.10
2014,07,08,11,41,12.90
2014,07,08,11,42,8.10
2014,07,08,11,43,9.60
2014,07,08,11,44,11.30
2014,07,08,11,45,14.50
2014,07,08,11,46,9.60
2014,07,08,11,47,22.50
2014,07,08,11,48,29.00
2014,07,08,11,49,17.70
2014,07,08,11,50,27.40
2014,07,08,11,51,19.30
2014,07,08,11,52,14.50
2014,07,08,11,53,8.10
2014,07,08,11,54,12.90
2014,07,08,11,55,8.10
2014,07,08,11,56,3.20
2014,07,08,11,57,8.10
2014,07,08,11,58,6.40
2014,07,08,11,59,12.90
2014,07,08,12,00,14.50
2014,07,08,12,01,11.30
2014,07,08,12,02,17.70
2014,07,08,12,03,6.40
2014,07,08,12,04,11.30
2014,07,08,12,05,8.10
2014,07,08,12,06,11.30
2014,07,08,12,07,11.30
2014,07,08,12,08,6.40
2014,07,08,12,09,16.10
2014,07,08,12,10,20.90
2014,07,08,12,11,24.20
2014,07,08,12,12,12.90
2014,07,08,12,13,14.50
2014,07,08,12,14,9.60
2014,07,08,12,15,16.10
2014,07,08,12,16,6.40
2014,07,08,12,17,25.70
2014,07,08,12,18,30.60
2014,07,08,12,19,14.50
2014,07,08,12,20,9.60
2014,07,08,12,21,16.10
2014,07,08,12,22,11.30
2014,07,08,12,23,16.10
2014,07,08,12,24,27.40
2014,07,08,12,25,9.60
2014,07,08,12,26,9.60
2014,07,08,12,27,4.80
2014,07,08,12,28,6.40
2014,07,08,12,29,9.60
2014,07,08,12,30,16.10
2014,07,08,12,31,17.70
2014,07,08,12,32,20.90
2014,07,08,12,33,20.90
2014,07,08,12,34,6.40
2014,07,08,12,35,3.20
2014,07,08,12,36,11.30
2014,07,08,12,37,9.60
2014,07,08,12,38,6.40
2014,07,08,12,39,9.60
2014,07,08,12,40,8.10
2014,07,08,12,41,9.60
2014,07,08,12,42,16.10
2014,07,08,12,43,16.10
2014,07,08,12,44,16.10
2014,07,08,12,45,14.50
2014,07,08,12,46,9.60
2014,07,08,12,47,16.10
2014,07,08,12,48,14.50
2014,07,08,12,49,16.10
2014,07,08,12,50,14.50
2014,07,08,12,51,22.50
2014,07,08,12,52,11.30
2014,07,08,12,53,11.30
2014,07,08,12,54,19.30
2014,07,08,12,55,16.10
2014,07,08,12,56,24.20
2014,07,08,12,57,9.60
2014,07,08,12,58,17.70
2014,07,08,12,59,16.10
2014,07,08,13,00,17.70
2014,07,08,13,01,17.70
2014,07,08,13,02,8.10
2014,07,08,13,03,16.10
2014,07,08,13,04,24.20
2014,07,08,13,05,22.50
2014,07,08,13,06,22.50
2014,07,08,13,07,17.70
2014,07,08,13,08,17.70
2014,07,08,13,09,14.50
2014,07,08,13,10,19.30
2014,07,08,13,11,30.60
2014,07,08,13,12,32.20
2014,07,08,13,13,16.10
2014,07,08,13,14,24.20
2014,07,08,13,15,37.00
2014,07,08,13,16,27.40
2014,07,08,13,17,17.70
2014,07,08,13,18,20.90
2014,07,08,13,19,32.20
2014,07,08,13,20,6.40
2014,07,08,13,21,9.60
2014,07,08,13,22,4.80
2014,07,08,13,23,11.30
2014,07,08,13,24,9.60
2014,07,08,13,25,9.60
2014,07,08,13,26,17.70
2014,07,08,13,27,29.00
2014,07,08,13,28,25.70
2014,07,08,13,29,20.90
2014,07,08,13,30,17.70
2014,07,08,13,31,19.30
2014,07,08,13,32,17.70
2014,07,08,13,33,29.00
2014,07,08,13,34,11.30
2014,07,08,13,35,12.90
2014,07,08,13,36,4.80
2014,07,08,13,37,20.90
2014,07,08,13,38,19.30
2014,07,08,13,39,17.70
2014,07,08,13,40,27.40
2014,07,08,13,41,19.30
2014,07,08,13,42,11.30
2014,07,08,13,43,25.70
2014,07,08,13,44,19.30
2014,07,08,13,45,16.10
2014,07,08,13,46,17.70
2014,07,08,13,47,17.70
2014,07,08,13,48,29.00
2014,07,08,13,49,24.20
2014,07,08,13,50,17.70
2014,07,08,13,51,16.10
2014,07,08,13,52,14.50
2014,07,08,13,53,11.30
2014,07,08,13,54,17.70
2014,07,08,13,55,30.60
2014,07,08,13,56,29.00
2014,07,08,13,57,17.70
2014,07,08,13,58,20.90
2014,07,08,13,59,30.60
2014,07,08,14,00,22.50
2014,07,08,14,01,16.10
2014,07,08,14,02,11.30
2014,07,08,14,03,20.90
2014,07,08,14,04,19.30
2014,07,08,14,05,16.10
2014,07,08,14,06,14.50
2014,07,08,14,07,9.60
2014,07,08,14,08,16.10
2014,07,08,14,09,17.70
2014,07,08,14,10,16.10
2014,07,08,14,11,11.30
2014,07,08,14,12,4.80
2014,07,08,14,13,8.10
2014,07,08,14,14,3.20
2014,07,08,14,15,14.50
2014,07,08,14,16,8.10
2014,07,08,14,17,16.10
2014,07,08,14,18,14.50
2014,07,08,14,19,11.30
2014,07,08,14,20,6.40
2014,07,08,14,21,6.40
2014,07,08,14,22,9.60
2014,07,08,14,23,6.40
2014,07,08,14,24,14.50
2014,07,08,14,25,4.80
2014,07,08,14,26,4.80
2014,07,08,14,27,9.60
2014,07,08,14,28,4.80
2014,07,08,14,29,4.80
2014,07,08,14,30,8.10
2014,07,08,14,31,6.40
2014,07,08,14,32,8.10
2014,07,08,14,33,4.80
2014,07,08,14,34,4.80
2014,07,08,14,35,6.40
2014,07,08,14,36,8.10
2014,07,08,14,37,8.10
2014,07,08,14,38,8.10
2014,07,08,14,39,19.30
2014,07,08,14,40,8.10
2014,07,08,14,41,16.10
2014,07,08,14,42,9.60
2014,07,08,14,43,16.10
2014,07,08,14,44,19.30
2014,07,08,14,45,14.50
2014,07,08,14,46,14.50
2014,07,08,14,47,12.90
2014,07,08,14,48,8.10
2014,07,08,14,49,4.80
2014,07,08,14,50,9.60
2014,07,08,14,51,8.10
2014,07,08,14,52,9.60
2014,07,08,14,53,16.10
2014,07,08,14,54,20.90
2014,07,08,14,55,16.10
2014,07,08,14,56,17.70
2014,07,08,14,57,14.50
2014,07,08,14,58,22.50
2014,07,08,14,59,9.60
2014,07,08,15,00,8.10
2014,07,08,15,01,3.20
2014,07,08,15,02,3.20
2014,07,08,15,03,14.50
2014,07,08,15,04,11.30
2014,07,08,15,05,4.80
2014,07,08,15,06,9.60
2014,07,08,15,07,8.10
2014,07,08,15,08,6.40
2014,07,08,15,09,8.10
2014,07,08,15,10,20.90
2014,07,08,15,11,11.30
2014,07,08,15,12,14.50
2014,07,08,15,13,9.60
2014,07,08,15,14,8.10
2014,07,08,15,15,9.60
2014,07,08,15,16,4.80
2014,07,08,15,17,16.10
2014,07,08,15,18,8.10
2014,07,08,15,19,6.40
2014,07,08,15,20,14.50
2014,07,08,15,21,8.10
2014,07,08,15,22,4.80
2014,07,08,15,23,9.60
2014,07,08,15,24,11.30
2014,07,08,15,25,6.40
2014,07,08,15,26,9.60
2014,07,08,15,27,16.10
2014,07,08,15,28,11.30
2014,07,08,15,29,9.60
2014,07,08,15,30,4.80
2014,07,08,15,31,6.40
2014,07,08,15,32,11.30
2014,07,08,15,33,6.40
2014,07,08,15,34,9.60
2014,07,08,15,35,6.40
2014,07,08,15,36,9.60
2014,07,08,15,37,8.10
2014,07,08,15,38,6.40
2014,07,08,15,39,9.60
2014,07,08,15,40,9.60
2014,07,08,15,41,4.80
2014,07,08,15,42,9.60
2014,07,08,15,43,9.60
2014,07,08,15,44,6.40
2014,07,08,15,45,8.10
2014,07,08,15,46,8.10
2014,07,08,15,47,11.30
2014,07,08,15,48,8.10
2014,07,08,15,49,6.40
2014,07,08,15,50,4.80
2014,07,08,15,51,4.80
2014,07,08,15,52,3.20
2014,07,08,15,53,6.40
2014,07,08,15,54,6.40
2014,07,08,15,55,12.90
2014,07,08,15,56,6.40
2014,07,08,15,57,9.60
2014,07,08,15,58,6.40
2014,07,08,15,59,8.10
2014,07,08,16,00,6.40
2014,07,08,16,01,6.40
2014,07,08,16,02,9.60
2014,07,08,16,03,8.10
2014,07,08,16,04,4.80
2014,07,08,16,05,8.10
2014,07,08,16,06,8.10
2014,07,08,16,07,6.40
2014,07,08,16,08,6.40
2014,07,08,16,09,3.20
2014,07,08,16,10,11.30
2014,07,08,16,11,4.80
2014,07,08,16,12,17.70
2014,07,08,16,13,20.90
2014,07,08,16,14,11.30
2014,07,08,16,15,12.90
2014,07,08,16,16,4.80
2014,07,08,16,17,8.10
2014,07,08,16,18,3.20
2014,07,08,16,19,4.80
2014,07,08,16,20,3.20
2014,07,08,16,21,8.10
2014,07,08,16,22,8.10
2014,07,08,16,23,8.10
2014,07,08,16,24,4.80
2014,07,08,16,25,4.80
2014,07,08,16,26,9.60
2014,07,08,16,27,6.40
2014,07,08,16,28,4.80
2014,07,08,16,29,8.10
2014,07,08,16,30,9.60
2014,07,08,16,31,8.10
2014,07,08,16,32,6.40
2014,07,08,16,33,4.80
2014,07,08,16,34,6.40
2014,07,08,16,35,8.10
2014,07,08,16,36,3.20
2014,07,08,16,37,8.10
2014,07,08,16,38,6.40
2014,07,08,16,39,4.80
2014,07,08,16,40,8.10
2014,07,08,16,41,4.80
2014,07,08,16,42,9.60
2014,07,08,16,43,8.10
2014,07,08,16,44,9.60
2014,07,08,16,45,6.40
2014,07,08,16,46,4.80
2014,07,08,16,47,8.10
2014,07,08,16,48,9.60
2014,07,08,16,49,6.40
2014,07,08,16,50,14.50
2014,07,08,16,51,4.80
2014,07,08,16,52,3.20
2014,07,08,16,53,6.40
2014,07,08,16,54,4.80
2014,07,08,16,55,4.80
2014,07,08,16,56,4.80
2014,07,08,16,57,1.60
2014,07,08,16,58,8.10
2014,07,08,16,59,4.80
2014,07,08,17,00,1.60
2014,07,08,17,01,4.80
2014,07,08,17,02,9.60
2014,07,08,17,03,4.80
2014,07,08,17,04,4.80
2014,07,08,17,05,12.90
2014,07,08,17,06,6.40
2014,07,08,17,07,8.10
2014,07,08,17,08,6.40
2014,07,08,17,09,8.10
2014,07,08,17,10,8.10
2014,07,08,17,11,11.30
2014,07,08,17,12,8.10
2014,07,08,17,13,6.40
2014,07,08,17,14,4.80
2014,07,08,17,15,8.10
2014,07,08,17,16,3.20
2014,07,08,17,17,4.80
2014,07,08,17,18,6.40
2014,07,08,17,19,6.40
2014,07,08,17,20,8.10
2014,07,08,17,21,6.40
2014,07,08,17,22,3.20
2014,07,08,17,23,1.60
2014,07,08,17,24,3.20
2014,07,08,17,25,3.20
2014,07,08,17,26,9.60
2014,07,08,17,27,8.10
2014,07,08,17,28,8.10
2014,07,08,17,29,9.60
2014,07,08,17,30,3.20
2014,07,08,17,31,3.20
2014,07,08,17,32,6.40
2014,07,08,17,33,6.40
2014,07,08,17,34,4.80
2014,07,08,17,35,4.80
2014,07,08,17,36,6.40
2014,07,08,17,37,4.80
2014,07,08,17,38,16.10
2014,07,08,17,39,8.10
2014,07,08,17,40,4.80